Beatrice, NE

1:51 AM CST on December 13, 2019 (GMT -0600)
Beatrice Municipal

Weather History for KBIE - October, 2019

Change the Weather History Date:

Monday, October 14, 2019

  Actual Average Record
Temperature  
Mean Temperature 54 °F -  
Max Temperature 76 °F 71 °F 89 °F (1975)
Min Temperature 33 °F 44 °F 26 °F (2006)
Degree Days  
Heating Degree Days 11    
Growing Degree Days 4 (Base 50)    
Moisture  
Dew Point 42 °F    
Average Humidity 64    
Maximum Humidity 92    
Minimum Humidity 38    
Precipitation  
Precipitation 0.00 in - - ()
Sea Level Pressure  
Sea Level Pressure 29.91 in    
Wind  
Wind Speed 6 mph (SE)    
Max Wind Speed 22 mph    
Max Gust Speed 26 mph    
Visibility 10 miles    
Events      
Averages and records for this station are not official NWS values.
T = Trace of Precipitation, MM = Missing Value Source: NWS Daily Summary

Daily Weather History Graph

Daily Weather History Graph

Search for Another Location

Airport or City:

Astronomy

Oct. 14, 2019 Rise Set
Actual Time 7:36 AM CDT 6:48 PM CDT
Civil Twilight 7:09 AM CDT 7:16 PM CDT
Nautical Twilight 6:37 AM CDT 7:47 PM CDT
Astronomical Twilight 6:06 AM CDT 8:19 PM CDT
Moon 7:39 PM CDT (10/14) 8:09 AM CDT (10/14)
Length of Visible Light 12h 07m
Length of Day
11h 12m
Full, 99% of the Moon is Illuminated
Oct 14
Full
Oct 21
Last Quarter
Oct 27
New
Nov 4
First Quarter
Nov 12
Full

Hourly Weather History & Observations

Time (CDT) Temp. Windchill Dew Point Humidity Pressure Visibility Wind Dir Wind Speed Gust Speed Precip Events Conditions
12:15 AM 37.8 °F 33.3 °F 33.4 °F 84% 30.00 in 10.0 mi NE 5.8 mph - N/A   Clear
12:35 AM 37.0 °F 33.3 °F 32.5 °F 84% 30.01 in 7.0 mi ENE 4.6 mph - N/A   Clear
12:55 AM 36.3 °F - 32.0 °F 84% 30.01 in 10.0 mi Calm Calm - N/A   Clear
1:15 AM 37.4 °F 32.8 °F 32.2 °F 81% 30.00 in 7.0 mi East 5.8 mph - N/A   Clear
1:35 AM 37.2 °F - 32.0 °F 81% 30.01 in 10.0 mi Calm Calm - N/A   Clear
2:15 AM 34.0 °F - 32.0 °F 92% 30.02 in 10.0 mi Calm Calm - N/A   Clear
2:35 AM 34.3 °F 31.4 °F 32.0 °F 91% 30.01 in 10.0 mi NE 3.5 mph - N/A   Clear
2:55 AM 35.1 °F - 32.0 °F 89% 30.01 in 10.0 mi Calm Calm - N/A   Clear
3:15 AM 35.1 °F - 31.6 °F 87% 30.01 in 10.0 mi Calm Calm - N/A   Clear
3:35 AM 34.2 °F 29.0 °F 31.8 °F 91% 30.00 in 10.0 mi NE 5.8 mph - N/A   Clear
3:55 AM 35.1 °F 32.2 °F 31.5 °F 87% 29.99 in 10.0 mi ENE 3.5 mph - N/A   Clear
4:15 AM 33.4 °F - 31.1 °F 91% 30.00 in 10.0 mi Calm Calm - N/A   Clear
4:35 AM 35.8 °F - 31.6 °F 85% 30.00 in 10.0 mi Calm Calm - N/A   Clear
4:55 AM 34.7 °F - 31.8 °F 89% 30.00 in 10.0 mi Calm Calm - N/A   Clear
5:15 AM 34.9 °F 32.0 °F 31.5 °F 87% 30.00 in 10.0 mi East 3.5 mph - N/A   Clear
5:30 AM 35.4 °F 30.5 °F 31.5 °F 85% 30.00 in 10.0 mi ENE 5.8 mph - N/A   Clear
5:55 AM 35.1 °F - 31.1 °F 85% 30.00 in 7.0 mi Calm Calm - N/A   Clear
6:15 AM 34.7 °F - 31.1 °F 87% 30.00 in 7.0 mi Calm Calm - N/A   Clear
6:35 AM 37.0 °F 34.5 °F 32.0 °F 82% 30.00 in 10.0 mi East 3.5 mph - N/A   Clear
6:55 AM 36.7 °F 34.1 °F 32.0 °F 83% 29.99 in 10.0 mi East 3.5 mph - N/A   Clear
7:15 AM 36.0 °F 33.3 °F 32.0 °F 86% 29.99 in 10.0 mi ENE 3.5 mph - N/A   Clear
7:35 AM 37.4 °F - 32.2 °F 81% 30.00 in 10.0 mi Calm Calm - N/A   Clear
7:55 AM 36.5 °F 33.9 °F 32.2 °F 84% 29.99 in 10.0 mi East 3.5 mph - N/A   Clear
8:15 AM 38.8 °F 36.5 °F 32.9 °F 79% 29.99 in 10.0 mi East 3.5 mph - N/A   Clear
8:35 AM 40.1 °F 38.0 °F 33.4 °F 77% 30.00 in 10.0 mi East 3.5 mph - N/A   Clear
8:55 AM 42.1 °F 40.2 °F 35.1 °F 76% 30.00 in 10.0 mi East 3.5 mph - N/A   Clear
9:15 AM 45.0 °F 41.8 °F 36.1 °F 71% 30.00 in 5.0 mi ESE 5.8 mph - N/A   Haze
9:35 AM 48.9 °F - 37.0 °F 64% 29.99 in 5.0 mi SE 5.8 mph - N/A   Haze
9:55 AM 52.7 °F - 37.8 °F 57% 29.99 in 7.0 mi SE 8.1 mph - N/A   Clear
10:15 AM 55.9 °F - 39.4 °F 54% 29.98 in 10.0 mi SSE 9.2 mph - N/A   Clear
10:35 AM 57.9 °F - 40.6 °F 53% 29.98 in 10.0 mi SSE 9.2 mph - N/A   Clear
10:55 AM 60.1 °F - 41.7 °F 51% 29.97 in 10.0 mi South 11.5 mph - N/A   Clear
11:15 AM 62.1 °F - 43.5 °F 51% 29.97 in 10.0 mi South 10.4 mph - N/A   Clear
11:35 AM 63.9 °F - 44.8 °F 50% 29.96 in 10.0 mi South 9.2 mph - N/A   Clear
11:55 AM 66.0 °F - 46.2 °F 49% 29.95 in 10.0 mi SSE 9.2 mph - N/A   Clear
12:15 PM 68.0 °F - 46.9 °F 47% 29.93 in 10.0 mi SSE 9.2 mph - N/A   Clear
12:35 PM 69.8 °F - 48.4 °F 46% 29.92 in 10.0 mi SSE 9.2 mph - N/A   Clear
12:55 PM 71.2 °F - 48.9 °F 45% 29.91 in 10.0 mi SSE 11.5 mph - N/A   Clear
1:15 PM 72.0 °F - 48.2 °F 43% 29.90 in 10.0 mi South 13.8 mph 19.6 mph N/A   Clear
1:35 PM 73.2 °F - 48.9 °F 42% 29.88 in 10.0 mi SSE 11.5 mph - N/A   Clear
1:55 PM 74.7 °F - 48.2 °F 39% 29.86 in 10.0 mi SSE 13.8 mph - N/A   Clear
2:15 PM 74.7 °F - 47.1 °F 38% 29.85 in 10.0 mi SSE 17.3 mph 26.5 mph N/A   Clear
2:35 PM 75.4 °F - 48.4 °F 38% 29.85 in 10.0 mi SSE 16.1 mph 20.7 mph N/A   Clear
2:55 PM 75.0 °F - 48.9 °F 40% 29.84 in 10.0 mi South 16.1 mph - N/A   Clear
3:15 PM 74.8 °F - 50.2 °F 42% 29.83 in 10.0 mi South 12.7 mph 19.6 mph N/A   Clear
3:35 PM 75.2 °F - 50.0 °F 41% 29.83 in 10.0 mi South 13.8 mph 21.9 mph N/A   Clear
3:55 PM 75.9 °F - 49.1 °F 39% 29.82 in 10.0 mi South 21.9 mph - N/A   Clear
4:15 PM 75.6 °F - 48.9 °F 39% 29.81 in 10.0 mi South 18.4 mph 21.9 mph N/A   Clear
4:35 PM 75.2 °F - 49.1 °F 40% 29.80 in 10.0 mi South 12.7 mph 23.0 mph N/A   Clear
4:55 PM 75.2 °F - 49.6 °F 41% 29.80 in 10.0 mi SSE 11.5 mph 19.6 mph N/A   Clear
5:15 PM 74.3 °F - 50.0 °F 42% 29.80 in 10.0 mi South 10.4 mph 19.6 mph N/A   Clear
5:35 PM 73.4 °F - 50.7 °F 45% 29.80 in 10.0 mi South 10.4 mph - N/A   Clear
5:55 PM 73.2 °F - 50.0 °F 44% 29.80 in 10.0 mi SSE 9.2 mph 16.1 mph N/A   Clear
6:15 PM 71.6 °F - 50.0 °F 46% 29.80 in 10.0 mi SSE 8.1 mph - N/A   Clear
6:35 PM 70.2 °F - 49.8 °F 48% 29.80 in 10.0 mi SSE 6.9 mph - N/A   Clear
6:55 PM 68.4 °F - 49.5 °F 51% 29.81 in 10.0 mi SSE 6.9 mph - N/A   Clear
7:15 PM 67.3 °F - 49.5 °F 53% 29.82 in 10.0 mi SE 5.8 mph - N/A   Clear
7:35 PM 66.4 °F - 50.0 °F 56% 29.82 in 10.0 mi SE 8.1 mph - N/A   Clear
7:55 PM 65.7 °F - 50.0 °F 57% 29.82 in 10.0 mi SE 5.8 mph - N/A   Clear
8:15 PM 63.7 °F - 50.0 °F 61% 29.82 in 10.0 mi SE 8.1 mph - N/A   Clear
8:35 PM 64.0 °F - 50.0 °F 60% 29.81 in 10.0 mi SE 9.2 mph - N/A   Clear
8:55 PM 64.0 °F - 49.8 °F 60% 29.81 in 10.0 mi SSE 9.2 mph - N/A   Clear
9:15 PM 62.8 °F - 50.0 °F 63% 29.81 in 10.0 mi SSE 9.2 mph - N/A   Clear
9:35 PM 62.6 °F - 50.0 °F 63% 29.82 in 10.0 mi SSE 8.1 mph - N/A   Clear
9:55 PM 61.3 °F - 50.2 °F 67% 29.81 in 10.0 mi SSE 9.2 mph - N/A   Clear
10:15 PM 61.0 °F - 50.7 °F 69% 29.81 in 10.0 mi SSE 10.4 mph - N/A   Clear
10:35 PM 61.9 °F - 51.1 °F 68% 29.81 in 10.0 mi SSE 10.4 mph - N/A   Clear
10:55 PM 61.7 °F - 51.4 °F 69% 29.81 in 10.0 mi South 11.5 mph - N/A   Clear
11:15 PM 61.7 °F - 51.8 °F 70% 29.81 in 10.0 mi South 11.5 mph - N/A   Clear
11:35 PM 61.2 °F - 52.0 °F 72% 29.80 in 10.0 mi South 10.4 mph - N/A   Clear
11:55 PM 60.6 °F - 52.2 °F 74% 29.80 in 10.0 mi SSE 8.1 mph - N/A   Clear